Location: Izdebno
(52.6670°N, 16.2170°E)
Time: 11:45:45
(UTC+02:00)

A-11 Canister half - Pass Details

Date: 16 February 2023
Orbit: 1526 x 1682 km, 47.3° (Epoch: 26 March)

Event Time Altitude Azimuth Distance (km) Brightness Sun altitude
Rises 07:22:53 0° 281° (W) 4,681 10.9 0.9°
Reaches altitude 10° 07:26:03 10° 275° (W) 3,697 10.4 1.4°
Maximum altitude 07:34:44 46° 206° (SSW) 1,973 9.7 2.6°
Drops below altitude 10° 07:43:32 10° 138° (SE) 3,747 12.6 3.8°
Sets 07:46:46 0° 132° (SE) 4,749 13.5 4.2°
